Great Bend, NY

12:19 AM EDT on August 24, 2016 (GMT -0400)
Wheeler-Sack Army Air Field

Weather History for KGTB - December, 2013

Change the Weather History Date:

Monday, December 16, 2013

  Actual Average Record
Temperature  
Mean Temperature 2 °F -  
Max Temperature 11 °F 31 °F 44 °F (1996)
Min Temperature -6 °F 16 °F -6 °F (2013)
Degree Days  
Heating Degree Days 62    
Moisture  
Dew Point -2 °F    
Average Humidity 80    
Maximum Humidity 92    
Minimum Humidity 54    
Precipitation  
Precipitation 0.00 in - - ()
Sea Level Pressure  
Sea Level Pressure 30.02 in    
Wind  
Wind Speed 5 mph (NW)    
Max Wind Speed 13 mph    
Max Gust Speed -    
Visibility 9 miles    
Events Snow    
Averages and records for this station are not official NWS values.
T = Trace of Precipitation, MM = Missing Value Source: NWS Daily Summary

Daily Weather History Graph

Daily Weather History Graph

Search for Another Location

Airport or City:

Trip Planner

Search our weather history database for the weather conditions in past years. The results will help you decide how hot, cold, wet, or windy it might be!

Date:

Astronomy

Dec. 16, 2013 Rise Set
Actual Time 7:31 AM EST 4:25 PM EST
Civil Twilight 6:58 AM EST 4:58 PM EST
Nautical Twilight 6:22 AM EST 5:35 PM EST
Astronomical Twilight 5:46 AM EST 6:10 PM EST
Moon 4:16 PM EST (12/16) 6:36 AM EST (12/16)
Length of Visible Light 10h 00m
Length of Day
8h 53m
Full, 100% of the Moon is Illuminated
Dec 16
Full
Dec 17
Full
Dec 25
Last Quarter
Jan 1
New
Jan 7
First Quarter

Hourly Weather History & Observations

Time (EST) Temp. Windchill Dew Point Humidity Pressure Visibility Wind Dir Wind Speed Gust Speed Precip Events Conditions
12:58 AM 11.7 °F 2.3 °F 9.3 °F 90% 29.79 in 4.0 mi NW 5.8 mph - 0.00 in Snow Light Snow
1:58 AM 10.9 °F 0.2 °F 9.0 °F 92% 29.83 in 6.0 mi NW 6.9 mph - 0.00 in Snow Light Snow
2:13 AM 10.4 °F -0.4 °F 8.6 °F 92% 29.81 in 6.0 mi NW 6.9 mph - N/A Snow Light Snow
2:28 AM 10.4 °F -0.4 °F 6.8 °F 85% 29.82 in 7.0 mi NNW 6.9 mph - N/A Snow Light Snow
2:58 AM 9.1 °F 0.8 °F 6.8 °F 90% 29.88 in 10.0 mi NW 4.6 mph - 0.00 in Snow Light Snow
3:46 AM 6.8 °F -3.5 °F 3.2 °F 85% 29.87 in 10.0 mi North 5.8 mph - N/A   Overcast
3:58 AM 6.8 °F -2.0 °F 3.7 °F 87% 29.91 in 10.0 mi North 4.6 mph - 0.00 in   Overcast
4:28 AM 6.8 °F -2.0 °F 3.2 °F 85% 29.88 in 10.0 mi North 4.6 mph - N/A   Overcast
4:38 AM 5.0 °F -4.1 °F 3.2 °F 92% 29.89 in 10.0 mi North 4.6 mph - N/A   Overcast
4:58 AM 5.5 °F -1.5 °F 2.3 °F 86% 29.94 in 10.0 mi North 3.5 mph - N/A   Overcast
5:14 AM 5.0 °F - 1.4 °F 85% 29.90 in 10.0 mi North 2.3 mph - N/A Snow Light Snow
5:24 AM 5.0 °F - 1.4 °F 85% 29.91 in 10.0 mi North 2.3 mph - N/A   Overcast
5:58 AM 3.2 °F - 0.7 °F 89% 29.97 in 10.0 mi NW 2.3 mph - 0.00 in   Overcast
6:58 AM 0.1 °F - -2.9 °F 87% 29.99 in 10.0 mi NW 2.3 mph - N/A   Overcast
7:28 AM -0.4 °F - -2.2 °F 92% 29.94 in 10.0 mi NW 1.2 mph - N/A   Overcast
7:38 AM -0.4 °F - -4.0 °F 85% 29.95 in 9.0 mi West 2.3 mph - N/A   Overcast
7:48 AM -2.2 °F - -5.8 °F 85% 29.96 in 10.0 mi NW 2.3 mph - N/A   Overcast
7:58 AM -2.0 °F - -5.3 °F 86% 30.01 in 8.0 mi NW 2.3 mph - N/A   Overcast
8:58 AM 2.8 °F -6.6 °F -0.2 °F 87% 30.04 in 10.0 mi NW 4.6 mph - N/A   Overcast
9:03 AM 3.2 °F -6.2 °F -0.4 °F 85% 30.00 in 10.0 mi WNW 4.6 mph - N/A   Overcast
9:38 AM 5.0 °F -4.1 °F 1.4 °F 85% 30.01 in 10.0 mi WNW 4.6 mph - N/A   Overcast
9:58 AM 6.3 °F -0.7 °F 0.1 °F 76% 30.07 in 8.0 mi NW 3.5 mph - N/A   Overcast
10:13 AM 6.8 °F -2.0 °F -0.4 °F 72% 30.02 in 10.0 mi WNW 4.6 mph - N/A   Mostly Cloudy
10:58 AM 7.2 °F -1.5 °F -1.8 °F 67% 30.08 in 10.0 mi West 4.6 mph - N/A   Clear
11:58 AM 7.5 °F - -1.1 °F 68% 30.07 in 10.0 mi Variable 2.3 mph - N/A   Clear
12:58 PM 7.5 °F -1.1 °F -4.7 °F 57% 30.08 in 10.0 mi Variable 4.6 mph - N/A   Mostly Cloudy
1:58 PM 8.4 °F 1.8 °F -5.3 °F 54% 30.09 in 10.0 mi Variable 3.5 mph - N/A   Clear
2:58 PM 9.0 °F -2.2 °F -4.0 °F 56% 30.11 in 10.0 mi WSW 6.9 mph - N/A   Clear
3:58 PM 7.3 °F -1.3 °F -5.4 °F 56% 30.13 in 10.0 mi West 4.6 mph - N/A   Clear
4:58 PM 4.3 °F - -5.6 °F 64% 30.16 in 10.0 mi NNW 2.3 mph - N/A   Clear
5:58 PM -2.0 °F -10.1 °F -9.6 °F 70% 30.18 in 10.0 mi ENE 3.5 mph - N/A   Clear
6:58 PM -5.3 °F -17.8 °F -11.0 °F 76% 30.19 in 10.0 mi South 5.8 mph - N/A   Clear
7:58 PM -5.8 °F -18.4 °F -9.6 °F 84% 30.22 in 10.0 mi SE 5.8 mph - N/A   Clear
8:58 PM -5.8 °F -18.4 °F -10.8 °F 79% 30.22 in 10.0 mi SE 5.8 mph - N/A   Clear
9:58 PM -6.2 °F -21.7 °F -10.1 °F 83% 30.22 in 10.0 mi SE 8.1 mph - N/A   Clear
10:58 PM -5.6 °F -23.2 °F -9.9 °F 82% 30.23 in 10.0 mi SE 10.4 mph - N/A   Clear
11:58 PM -5.4 °F -24.8 °F -9.4 °F 83% 30.22 in 10.0 mi SE 12.7 mph - N/A   Clear